Location: El Bakhil
(32.7726°N, 5.5387°W)
Time: 05:25:54
(UTC+00:00)

Cosmos 2263 Rocket - Pass Details

Date: 03 March 2021
Orbit: 825 x 847 km, 71.0° (Epoch: 12 April)

Event Time Altitude Azimuth Distance (km) Brightness Sun altitude
Rises 19:33:48 0° 327° (NNW) 3,364 5.8 -16.1°
Reaches altitude 10° 19:36:26 10° 318° (NW) 2,428 5.2 -16.6°
Maximum altitude 19:41:19 32° 257° (WSW) 1,376 4.0 -17.7°
Drops below altitude 10° 19:46:12 10° 195° (SSW) 2,422 4.7 -18.7°
Sets 19:48:50 0° 186° (S) 3,355 5.3 -19.2°
